Time,TemperatureF,DewpointF,PressureIn,WindDirection,WindDirectionDegrees,WindSpeedMPH,WindSpeedGustMPH,Humidity,HourlyPrecipIn,Conditions,Clouds,dailyrainin,SoftwareType,DateUTC
2013-08-04 00:08:00,54.4,51.0,30.08,NW,309,0.0,4.0,88,0.00,,,0.00,weatherlink.com 1.10,2013-08-04 04:08:00,
2013-08-04 00:23:00,54.0,50.0,30.08,NW,309,0.0,1.0,87,0.00,,,0.00,weatherlink.com 1.10,2013-08-04 04:23:00,
2013-08-04 00:38:00,53.2,50.0,30.08,NW,309,0.0,0.0,88,0.00,,,0.00,weatherlink.com 1.10,2013-08-04 04:38:00,
2013-08-04 00:53:00,52.6,49.0,30.09,NW,309,0.0,0.0,88,0.00,,,0.00,weatherlink.com 1.10,2013-08-04 04:53:00,
2013-08-04 01:08:00,52.3,49.0,30.09,NW,309,0.0,1.0,88,0.00,,,0.00,weatherlink.com 1.10,2013-08-04 05:08:00,
2013-08-04 01:23:00,52.7,49.0,30.09,NW,309,0.0,2.0,88,0.00,,,0.00,weatherlink.com 1.10,2013-08-04 05:23:00,
2013-08-04 01:38:00,52.7,49.0,30.09,NW,309,2.0,2.0,88,0.00,,,0.00,weatherlink.com 1.10,2013-08-04 05:38:00,
2013-08-04 01:53:00,52.8,49.0,30.09,NW,309,0.0,4.0,88,0.00,,,0.00,weatherlink.com 1.10,2013-08-04 05:53:00,
2013-08-04 02:23:00,52.3,49.0,30.10,NW,309,0.0,1.0,88,0.00,,,0.00,weatherlink.com 1.10,2013-08-04 06:23:00,
2013-08-04 02:38:00,51.8,48.0,30.11,NW,309,0.0,1.0,88,0.00,,,0.00,weatherlink.com 1.10,2013-08-04 06:38:00,
2013-08-04 02:53:00,51.4,48.0,30.11,NW,309,0.0,1.0,88,0.00,,,0.00,weatherlink.com 1.10,2013-08-04 06:53:00,
2013-08-04 03:08:00,51.2,48.0,30.12,NW,309,0.0,1.0,88,0.00,,,0.00,weatherlink.com 1.10,2013-08-04 07:08:00,
2013-08-04 03:24:00,51.1,48.0,30.12,NW,309,0.0,0.0,89,0.00,,,0.00,weatherlink.com 1.10,2013-08-04 07:24:00,
2013-08-04 03:39:00,50.5,47.0,30.12,NW,310,0.0,0.0,89,0.00,,,0.00,weatherlink.com 1.10,2013-08-04 07:39:00,
2013-08-04 03:53:00,50.5,47.0,30.13,NW,310,0.0,0.0,89,0.00,,,0.00,weatherlink.com 1.10,2013-08-04 07:53:00,
2013-08-04 04:08:00,50.5,47.0,30.13,NW,310,0.0,1.0,89,0.00,,,0.00,weatherlink.com 1.10,2013-08-04 08:08:00,
2013-08-04 04:24:00,51.0,48.0,30.14,NW,310,2.0,2.0,88,0.00,,,0.00,weatherlink.com 1.10,2013-08-04 08:24:00,
2013-08-04 04:39:00,51.1,48.0,30.14,NW,310,0.0,1.0,89,0.00,,,0.00,weatherlink.com 1.10,2013-08-04 08:39:00,
2013-08-04 04:54:00,51.0,48.0,30.14,NW,310,0.0,1.0,88,0.00,,,0.00,weatherlink.com 1.10,2013-08-04 08:54:00,
2013-08-04 05:09:00,50.2,47.0,30.15,NW,310,0.0,0.0,89,0.00,,,0.00,weatherlink.com 1.10,2013-08-04 09:09:00,
2013-08-04 05:24:00,49.2,46.0,30.15,NW,310,0.0,0.0,89,0.00,,,0.00,weatherlink.com 1.10,2013-08-04 09:24:00,
2013-08-04 05:39:00,48.2,45.0,30.15,NW,310,0.0,0.0,89,0.00,,,0.00,weatherlink.com 1.10,2013-08-04 09:39:00,
2013-08-04 05:54:00,47.8,45.0,30.16,NW,310,0.0,0.0,89,0.00,,,0.00,weatherlink.com 1.10,2013-08-04 09:54:00,
2013-08-04 06:09:00,47.1,44.0,30.16,NW,310,0.0,0.0,89,0.00,,,0.00,weatherlink.com 1.10,2013-08-04 10:09:00,
2013-08-04 06:24:00,46.9,44.0,30.16,NW,310,0.0,0.0,89,0.00,,,0.00,weatherlink.com 1.10,2013-08-04 10:24:00,
2013-08-04 06:39:00,46.5,44.0,30.17,NW,310,0.0,0.0,89,0.00,,,0.00,weatherlink.com 1.10,2013-08-04 10:39:00,
2013-08-04 06:54:00,46.4,43.0,30.17,NW,310,0.0,0.0,89,0.00,,,0.00,weatherlink.com 1.10,2013-08-04 10:54:00,
2013-08-04 07:09:00,46.5,44.0,30.17,NW,310,0.0,0.0,89,0.00,,,0.00,weatherlink.com 1.10,2013-08-04 11:09:00,
2013-08-04 07:24:00,47.2,44.0,30.18,NW,310,0.0,0.0,89,0.00,,,0.00,weatherlink.com 1.10,2013-08-04 11:24:00,
2013-08-04 07:39:00,49.0,46.0,30.18,NW,310,0.0,2.0,89,0.00,,,0.00,weatherlink.com 1.10,2013-08-04 11:39:00,
2013-08-04 07:54:00,50.7,48.0,30.18,NW,310,0.0,2.0,89,0.00,,,0.00,weatherlink.com 1.10,2013-08-04 11:54:00,
2013-08-04 08:09:00,52.7,50.0,30.19,NW,304,0.0,4.0,89,0.00,,,0.00,weatherlink.com 1.10,2013-08-04 12:09:00,
2013-08-04 08:24:00,54.2,51.0,30.19,NW,309,3.0,6.0,88,0.00,,,0.00,weatherlink.com 1.10,2013-08-04 12:24:00,
2013-08-04 08:39:00,55.5,52.0,30.19,WNW,302,4.0,5.0,87,0.00,,,0.00,weatherlink.com 1.10,2013-08-04 12:39:00,
2013-08-04 08:54:00,56.3,52.0,30.20,NW,304,3.0,7.0,86,0.00,,,0.00,weatherlink.com 1.10,2013-08-04 12:54:00,
2013-08-04 09:09:00,57.0,52.0,30.20,WNW,292,1.0,7.0,84,0.00,,,0.00,weatherlink.com 1.10,2013-08-04 13:09:00,
2013-08-04 09:24:00,58.1,53.0,30.19,WNW,294,2.0,7.0,83,0.00,,,0.00,weatherlink.com 1.10,2013-08-04 13:24:00,
2013-08-04 09:39:00,59.5,54.0,30.19,WNW,288,2.0,8.0,81,0.00,,,0.00,weatherlink.com 1.10,2013-08-04 13:39:00,
2013-08-04 09:55:00,60.2,54.0,30.19,WSW,250,1.0,6.0,81,0.00,,,0.00,weatherlink.com 1.10,2013-08-04 13:55:00,
2013-08-04 10:10:00,60.9,54.0,30.19,NW,304,7.0,9.0,78,0.00,,,0.00,weatherlink.com 1.10,2013-08-04 14:10:00,
2013-08-04 10:25:00,60.6,54.0,30.18,West,259,3.0,9.0,80,0.00,,,0.00,weatherlink.com 1.10,2013-08-04 14:25:00,
2013-08-04 10:40:00,61.8,55.0,30.19,WNW,290,6.0,9.0,77,0.00,,,0.00,weatherlink.com 1.10,2013-08-04 14:40:00,
2013-08-04 10:55:00,62.5,54.0,30.19,WNW,284,9.0,12.0,74,0.00,,,0.00,weatherlink.com 1.10,2013-08-04 14:55:00,
2013-08-04 11:10:00,61.8,54.0,30.19,WSW,240,5.0,12.0,75,0.00,,,0.00,weatherlink.com 1.10,2013-08-04 15:10:00,
2013-08-04 11:25:00,62.7,55.0,30.19,West,278,8.0,12.0,76,0.00,,,0.00,weatherlink.com 1.10,2013-08-04 15:25:00,
2013-08-04 11:40:00,62.9,54.0,30.19,WNW,284,6.0,11.0,73,0.00,,,0.00,weatherlink.com 1.10,2013-08-04 15:40:00,
2013-08-04 11:55:00,63.9,55.0,30.19,WNW,298,4.0,12.0,72,0.00,,,0.00,weatherlink.com 1.10,2013-08-04 15:55:00,
2013-08-04 12:10:00,64.7,55.0,30.18,West,263,9.0,11.0,70,0.00,,,0.00,weatherlink.com 1.10,2013-08-04 16:10:00,
2013-08-04 12:25:00,64.6,54.0,30.18,SW,225,5.0,11.0,69,0.00,,,0.00,weatherlink.com 1.10,2013-08-04 16:25:00,
2013-08-04 12:40:00,66.2,54.0,30.18,West,260,4.0,10.0,66,0.00,,,0.00,weatherlink.com 1.10,2013-08-04 16:40:00,
2013-08-04 12:55:00,65.0,55.0,30.18,West,259,7.0,12.0,69,0.00,,,0.00,weatherlink.com 1.10,2013-08-04 16:55:00,
2013-08-04 13:10:00,65.3,54.0,30.18,WSW,246,4.0,13.0,66,0.00,,,0.00,weatherlink.com 1.10,2013-08-04 17:10:00,
2013-08-04 13:25:00,65.5,55.0,30.18,West,271,13.0,17.0,70,0.00,,,0.00,weatherlink.com 1.10,2013-08-04 17:25:00,
2013-08-04 13:40:00,63.9,54.0,30.18,West,272,10.0,19.0,70,0.00,,,0.00,weatherlink.com 1.10,2013-08-04 17:40:00,
2013-08-04 13:55:00,66.0,55.0,30.17,West,273,11.0,18.0,68,0.00,,,0.00,weatherlink.com 1.10,2013-08-04 17:55:00,
2013-08-04 14:10:00,66.2,54.0,30.17,WNW,296,5.0,15.0,66,0.00,,,0.00,weatherlink.com 1.10,2013-08-04 18:10:00,
2013-08-04 14:25:00,66.1,54.0,30.16,WNW,298,7.0,15.0,66,0.00,,,0.00,weatherlink.com 1.10,2013-08-04 18:25:00,
2013-08-04 14:40:00,67.9,55.0,30.16,West,260,8.0,14.0,63,0.00,,,0.00,weatherlink.com 1.10,2013-08-04 18:40:00,
2013-08-04 14:55:00,68.6,53.0,30.16,WNW,300,10.0,16.0,57,0.00,,,0.00,weatherlink.com 1.10,2013-08-04 18:55:00,
2013-08-04 15:10:00,69.8,54.0,30.15,West,281,12.0,16.0,57,0.00,,,0.00,weatherlink.com 1.10,2013-08-04 19:10:00,
2013-08-04 15:25:00,70.1,53.0,30.15,WNW,298,11.0,16.0,54,0.00,,,0.00,weatherlink.com 1.10,2013-08-04 19:25:00,
2013-08-04 15:40:00,69.9,53.0,30.15,WNW,290,6.0,19.0,55,0.00,,,0.00,weatherlink.com 1.10,2013-08-04 19:40:00,
2013-08-04 15:55:00,70.2,53.0,30.14,NW,318,12.0,19.0,54,0.00,,,0.00,weatherlink.com 1.10,2013-08-04 19:55:00,
2013-08-04 16:10:00,70.6,52.0,30.14,NW,311,8.0,16.0,53,0.00,,,0.00,weatherlink.com 1.10,2013-08-04 20:10:00,
2013-08-04 16:25:00,69.9,52.0,30.14,West,262,11.0,16.0,54,0.00,,,0.00,weatherlink.com 1.10,2013-08-04 20:25:00,
2013-08-04 16:40:00,70.0,52.0,30.14,WNW,296,8.0,16.0,53,0.00,,,0.00,weatherlink.com 1.10,2013-08-04 20:40:00,
2013-08-04 16:55:00,70.0,54.0,30.14,West,277,10.0,20.0,57,0.00,,,0.00,weatherlink.com 1.10,2013-08-04 20:55:00,
2013-08-04 17:10:00,69.7,53.0,30.14,WNW,292,9.0,19.0,55,0.00,,,0.00,weatherlink.com 1.10,2013-08-04 21:10:00,
2013-08-04 17:25:00,69.5,52.0,30.14,WNW,294,6.0,18.0,54,0.00,,,0.00,weatherlink.com 1.10,2013-08-04 21:25:00,
2013-08-04 17:40:00,69.3,52.0,30.14,WNW,302,7.0,17.0,54,0.00,,,0.00,weatherlink.com 1.10,2013-08-04 21:40:00,
2013-08-04 17:55:00,69.1,51.0,30.14,NW,304,9.0,21.0,52,0.00,,,0.00,weatherlink.com 1.10,2013-08-04 21:55:00,
2013-08-04 18:10:00,69.0,50.0,30.15,NW,325,13.0,17.0,52,0.00,,,0.00,weatherlink.com 1.10,2013-08-04 22:10:00,
2013-08-04 18:25:00,68.4,50.0,30.14,NW,325,10.0,19.0,52,0.00,,,0.00,weatherlink.com 1.10,2013-08-04 22:25:00,
2013-08-04 18:40:00,68.1,51.0,30.15,NW,306,6.0,15.0,55,0.00,,,0.00,weatherlink.com 1.10,2013-08-04 22:40:00,
2013-08-04 20:06:00,64.9,50.0,30.13,NW,311,9.0,9.0,58,0.00,,,0.00,weatherlink.com 1.10,2013-08-05 00:06:00,
2013-08-04 20:22:00,64.1,50.0,30.14,NW,319,6.0,8.0,60,0.00,,,0.00,weatherlink.com 1.10,2013-08-05 00:22:00,
2013-08-04 20:37:00,63.1,50.0,30.14,WNW,292,3.0,8.0,63,0.00,,,0.00,weatherlink.com 1.10,2013-08-05 00:37:00,
2013-08-04 20:51:00,61.9,50.0,30.14,WNW,292,4.0,6.0,65,0.00,,,0.00,weatherlink.com 1.10,2013-08-05 00:51:00,
2013-08-04 21:07:00,60.9,50.0,30.14,West,271,2.0,6.0,67,0.00,,,0.00,weatherlink.com 1.10,2013-08-05 01:07:00,
2013-08-04 21:22:00,59.9,50.0,30.14,NW,315,4.0,5.0,69,0.00,,,0.00,weatherlink.com 1.10,2013-08-05 01:22:00,
2013-08-04 21:37:00,59.0,50.0,30.14,WNW,301,3.0,5.0,71,0.00,,,0.00,weatherlink.com 1.10,2013-08-05 01:37:00,
2013-08-04 21:52:00,58.4,49.0,30.14,WNW,301,0.0,3.0,72,0.00,,,0.00,weatherlink.com 1.10,2013-08-05 01:52:00,
2013-08-04 22:07:00,57.8,50.0,30.14,NW,305,0.0,3.0,74,0.00,,,0.00,weatherlink.com 1.10,2013-08-05 02:07:00,
2013-08-04 22:22:00,56.8,49.0,30.14,NW,305,1.0,3.0,76,0.00,,,0.00,weatherlink.com 1.10,2013-08-05 02:22:00,
2013-08-04 22:37:00,56.2,50.0,30.14,WNW,294,0.0,4.0,79,0.00,,,0.00,weatherlink.com 1.10,2013-08-05 02:37:00,
2013-08-04 22:52:00,55.4,49.0,30.14,WNW,294,0.0,1.0,79,0.00,,,0.00,weatherlink.com 1.10,2013-08-05 02:52:00,
2013-08-04 23:07:00,54.5,49.0,30.15,WNW,294,0.0,1.0,81,0.00,,,0.00,weatherlink.com 1.10,2013-08-05 03:07:00,
2013-08-04 23:22:00,53.3,48.0,30.14,WNW,294,0.0,1.0,83,0.00,,,0.00,weatherlink.com 1.10,2013-08-05 03:22:00,
2013-08-04 23:37:00,52.4,48.0,30.14,WNW,294,0.0,2.0,85,0.00,,,0.00,weatherlink.com 1.10,2013-08-05 03:37:00,
2013-08-04 23:52:00,52.8,48.0,30.14,WNW,294,0.0,1.0,85,0.00,,,0.00,weatherlink.com 1.10,2013-08-05 03:52:00,